This is the latest recevied weather packets stored in our database for station/object N6AMQ-1. If no packets are shown the sender has not sent any weather packets the latest 10 day(s).
| Time | Temp. | Humidity | Pressure | Rain* | Wind** | Luminosity | Snow |
|---|---|---|---|---|---|---|---|
| 1788043141 | 26.11° C | 41% | 1013.9 hPa | 0 mm | - | - | - |
| 1788042903 | 26.11° C | 41% | 1013.9 hPa | 0 mm | - | - | - |
| 1788042241 | 26.67° C | 38% | 1013.9 hPa | 0 mm | - | - | - |
| 1788041705 | 27.22° C | 38% | 1013.9 hPa | 0 mm | - | - | - |
| 1788041641 | 27.22° C | 38% | 1013.9 hPa | 0 mm | - | - | - |
| 1788041341 | 27.22° C | 37% | 1013.9 hPa | 0 mm | - | - | - |
| 1788040741 | 26.67° C | 37% | 1013.9 hPa | 0 mm | - | - | - |
| 1788040503 | 26.67° C | 38% | 1013.9 hPa | 0 mm | - | - | - |
| 1788039303 | 25.56° C | 41% | 1014.9 hPa | 0 mm | - | - | - |
| 1788038942 | 25.56° C | 44% | 1014.9 hPa | 0 mm | - | - | - |
| 1788038641 | 25° C | 43% | 1014.9 hPa | 0 mm | - | - | - |
| 1788038103 | 25° C | 48% | 1014.9 hPa | 0 mm | - | - | - |
| 1788038041 | 25° C | 48% | 1014.9 hPa | 0 mm | - | - | - |
| 1788036903 | 24.44° C | 51% | 1014.9 hPa | 0 mm | - | - | - |
| 1788036841 | 24.44° C | 50% | 1014.9 hPa | 0 mm | - | - | - |
| 1788035736 | 23.89° C | 56% | 1014.9 hPa | 0 mm | - | - | - |
| 1788035704 | 23.89° C | 56% | 1014.9 hPa | 0 mm | - | - | - |
| 1788035641 | 23.89° C | 55% | 1014.9 hPa | 0 mm | - | - | - |
| 1788035341 | 23.89° C | 58% | 1014.9 hPa | 0 mm | - | - | - |
| 1788034513 | 23.33° C | 60% | 1014.9 hPa | 0 mm | - | - | - |
| 1788033841 | 22.78° C | 58% | 1014.9 hPa | 0 mm | - | - | - |
| 1788033303 | 22.78° C | 61% | 1015.9 hPa | 0 mm | - | - | - |
| 1788032103 | 22.22° C | 62% | 1015.9 hPa | 0 mm | - | - | - |
| 1788032041 | 22.22° C | 62% | 1015.9 hPa | 0 mm | - | - | - |
| 1788030903 | 22.22° C | 64% | 1015.9 hPa | 0 mm | - | - | - |
* Rain latest hour (hover to see other rain measurements)
** Current wind speed in m/s (hover to see current wind gust speed)